Tracking 29892 objects as of 21-Nov-2024
HD Live streaming from Space Station
objects crossing your sky now

STARLINK-31341

Track STARLINK-31341 now!
10-day predictions
STARLINK-31341 is classified as:


NORAD ID: 59155
Int'l Code: 2024-044D
Perigee: 494.4 km
Apogee: 495.9 km
Inclination: 43.0 °
Period: 94.4 minutes
Semi major axis: 6866 km
RCS: Unknown
Launch date: March 4, 2024
Source: United States (US)
Launch site: AIR FORCE EASTERN TEST RANGE (AFETR)
Your satellite tracking list
Your tracking list is empty




NASA's NSSDC Master Catalog

Two Line Element Set (TLE):
1 59155U 24044D   24325.84456631 -.00005789  00000-0 -21155-3 0  9990
2 59155  43.0017 261.6451 0001142 292.2611  67.8119 15.25925846 41091
Source of the keplerian elements: AFSPC